Simultaneous Nadir Overpasses (SNOs) Predictions

Prediction of SNOs between GOES-16 and METOP-B Satellite Orbit:

Table of predicted SNOs for the next 14.0 days since TLE Epoch: 6/8/2017
Index Date Time (GOES-16) GOES-16 Lat,Lon METOP-B Lat,Lon Distance(km) Time Diff (sec)
1 06/09/2017 03:43:06 -0.00, -89.46 -0.72, -92.58 356.00 80
2 06/10/2017 03:19:47 -0.01, -89.47 0.42, -87.59 213.38 80
3 06/11/2017 15:38:38 0.01, -89.48 0.60, -92.16 304.70 80
4 06/12/2017 15:20:38 0.01, -89.49 -0.48, -87.16 265.05 80
5 06/14/2017 03:39:37 -0.01, -89.49 -0.54, -91.75 258.86 80
6 06/15/2017 03:16:18 0.00, -89.49 0.60, -86.76 310.69 80
7 06/16/2017 15:35:09 -0.01, -89.51 0.41, -91.33 207.30 80
8 06/17/2017 15:17:09 -0.01, -89.52 -0.73, -86.34 362.67 80
9 06/19/2017 03:36:09 0.01, -89.52 -0.29, -90.93 160.45 80
10 06/20/2017 03:12:48 0.01, -89.53 0.79, -85.93 409.52 80
11 06/21/2017 15:31:40 -0.00, -89.55 0.22, -90.50 108.09 80
12 06/22/2017 15:13:40 -0.01, -89.56 -0.92, -85.51 462.01 80




NCC Satellite Simultaneous Nadir Overpasses (SNOs) Prediction Service
